Brownsville, TX

11:42 PM CDT on April 27, 2017 (GMT -0500)
Brownsville-South Padre I International

Weather History for KBRO - April, 2014

Change the Weather History Date:

Monday, April 28, 2014

  Actual Average Record
Temperature  
Mean Temperature 86 °F 77 °F  
Max Temperature 100 °F 85 °F 100 °F (2014)
Min Temperature 72 °F 69 °F 50 °F (1997)
Degree Days  
Heating Degree Days 0 0  
Month to date heating degree days 10 6  
Since 1 July heating degree days 824 552  
Cooling Degree Days 21 12  
Month to date cooling degree days 264 277  
Year to date cooling degree days 507 592  
Growing Degree Days 34 (Base 50)    
Moisture  
Dew Point 73 °F    
Average Humidity 61    
Maximum Humidity 94    
Minimum Humidity 27    
Precipitation  
Precipitation 0.00 in 0.05 in 2.65 in (2013)
Month to date precipitation 0.28 1.44  
Year to date precipitation 2.50 5.02  
Sea Level Pressure  
Sea Level Pressure 29.61 in    
Wind  
Wind Speed 14 mph (SSE)    
Max Wind Speed 29 mph    
Max Gust Speed 36 mph    
Visibility 9 miles    
Events Rain    
T = Trace of Precipitation, MM = Missing Value Source: NWS Daily Summary

Daily Weather History Graph

Daily Weather History Graph

Search for Another Location

Airport or City:

Trip Planner

Search our weather history database for the weather conditions in past years. The results will help you decide how hot, cold, wet, or windy it might be!

Date:

Astronomy

Apr. 28, 2014 Rise Set
Actual Time 6:55 AM CDT 7:59 PM CDT
Civil Twilight 6:30 AM CDT 8:23 PM CDT
Nautical Twilight 6:02 AM CDT 8:52 PM CDT
Astronomical Twilight 5:33 AM CDT 9:21 PM CDT
Moon 6:28 AM CDT 7:41 PM CDT
Length of Visible Light 13h 52m
Length of Day
13h 04m
Waning Crescent, 0% of the Moon is Illuminated
Apr 28
Waning Crescent
Apr 29
New
May 6
First Quarter
May 14
Full
May 21
Last Quarter

Hourly Weather History & Observations

Time (CDT) Temp. Heat Index Dew Point Humidity Pressure Visibility Wind Dir Wind Speed Gust Speed Precip Events Conditions
12:37 AM 78.8 °F - 75.2 °F 89% 29.60 in 10.0 mi South 18.4 mph 28.8 mph N/A   Overcast
12:53 AM 78.1 °F - 75.0 °F 90% 29.60 in 10.0 mi South 16.1 mph 28.8 mph N/A   Overcast
1:01 AM 78.8 °F - 75.2 °F 89% 29.60 in 10.0 mi South 19.6 mph 29.9 mph N/A   Overcast
1:53 AM 78.1 °F - 75.0 °F 90% 29.57 in 9.0 mi South 20.7 mph 29.9 mph N/A   Overcast
2:35 AM 77.0 °F - 75.2 °F 94% 29.57 in 9.0 mi South 21.9 mph 29.9 mph N/A   Overcast
2:53 AM 77.0 °F - 75.9 °F 96% 29.57 in 8.0 mi South 19.6 mph 26.5 mph N/A   Overcast
3:53 AM 77.0 °F - 75.0 °F 94% 29.57 in 9.0 mi South 24.2 mph 28.8 mph N/A   Overcast
4:53 AM 78.1 °F - 75.9 °F 93% 29.57 in 9.0 mi South 25.3 mph 35.7 mph N/A   Overcast
5:53 AM 78.1 °F - 75.0 °F 90% 29.56 in 10.0 mi South 19.6 mph 29.9 mph N/A   Overcast
6:53 AM 77.0 °F - 75.0 °F 94% 29.57 in 9.0 mi South 19.6 mph 27.6 mph N/A   Mostly Cloudy
7:53 AM 77.0 °F - 75.0 °F 94% 29.59 in 8.0 mi South 18.4 mph 25.3 mph N/A   Mostly Cloudy
8:14 AM 78.8 °F - 75.2 °F 89% 29.60 in 9.0 mi South 16.1 mph 24.2 mph N/A   Mostly Cloudy
8:25 AM 78.8 °F - 75.2 °F 89% 29.60 in 10.0 mi South 17.3 mph 26.5 mph N/A   Scattered Clouds
8:53 AM 81.0 °F 87.3 °F 75.9 °F 85% 29.61 in 10.0 mi South 20.7 mph 26.5 mph N/A   Clear
9:11 AM 80.6 °F 86.2 °F 75.2 °F 84% 29.65 in 10.0 mi SW 13.8 mph 24.2 mph N/A   Mostly Cloudy
9:44 AM 82.4 °F 89.5 °F 75.2 °F 79% 29.66 in 10.0 mi WSW 11.5 mph 21.9 mph N/A   Overcast
9:53 AM 82.0 °F 89.4 °F 75.9 °F 82% 29.66 in 10.0 mi WSW 13.8 mph - N/A   Overcast
10:35 AM 84.2 °F 92.3 °F 75.2 °F 74% 29.65 in 10.0 mi SW 8.1 mph - N/A   Scattered Clouds
10:53 AM 86.0 °F 95.1 °F 75.0 °F 70% 29.65 in 10.0 mi SW 8.1 mph - N/A   Clear
11:53 AM 90.0 °F 99.0 °F 73.9 °F 59% 29.66 in 10.0 mi WNW 10.4 mph - N/A   Scattered Clouds
12:53 PM 93.9 °F 104.0 °F 73.9 °F 52% 29.65 in 10.0 mi North 9.2 mph - 0.00 in Rain Light Rain
1:53 PM 96.1 °F 107.1 °F 73.9 °F 49% 29.64 in 10.0 mi NE 13.8 mph 17.3 mph 0.00 in   Partly Cloudy
2:53 PM 93.0 °F 104.6 °F 75.0 °F 56% 29.64 in 10.0 mi NE 15.0 mph 21.9 mph N/A   Clear
3:53 PM - - - N/A% 29.62 in 10.0 mi NE 17.3 mph 24.2 mph N/A   Clear
4:53 PM 97.5 °F 96.9 °F 57.9 °F 27% 29.60 in 10.0 mi ENE 17.3 mph 23.0 mph N/A   Clear
5:53 PM 93.9 °F 95.2 °F 63.0 °F 36% 29.59 in 10.0 mi ENE 15.0 mph 21.9 mph N/A   Clear
6:53 PM 93.9 °F 95.2 °F 63.0 °F 36% 29.58 in 10.0 mi ENE 13.8 mph - N/A   Clear
7:53 PM 93.2 °F 96.2 °F 66.0 °F 41% 29.59 in 10.0 mi East 9.2 mph - N/A   Clear
8:53 PM 91.4 °F 96.8 °F 70.0 °F 49% 29.61 in 10.0 mi ESE 5.8 mph - N/A   Clear
9:53 PM 73.9 °F - 72.0 °F 93% 29.64 in 10.0 mi SE 4.6 mph - N/A   Clear
10:18 PM 73.4 °F - 73.4 °F 100% 29.65 in 9.0 mi SSE 5.8 mph - N/A   Scattered Clouds
10:39 PM 73.4 °F - 71.6 °F 94% 29.65 in 8.0 mi SSE 5.8 mph - N/A   Mostly Cloudy
10:53 PM 73.0 °F - 72.0 °F 96% 29.65 in 8.0 mi SSE 5.8 mph - N/A   Overcast
11:17 PM 71.6 °F - 71.6 °F 100% 29.65 in 7.0 mi South 4.6 mph - N/A   Overcast
11:53 PM 75.0 °F - 73.9 °F 96% 29.64 in 6.0 mi SSE 6.9 mph - N/A   Overcast